Showing default

XM-7, 47240

Orbit data source: Space-Track

XM-7, 47240 is a payload satellite owned by Sirius XM (US) in GEO that was launched on Sun, 13 Dec 2020 UTC via an FALCON 9 launch vehicle from the Air Force Eastern Test Range (AFETR). Payload-class satellites include a variety of spacecraft equipped with specific instruments for various scientific and technological missions. These include communications satellites like Starlink; space stations such as the ISS; scientific satellites like the Hubble; Earth observation satellites from companies like Planet Labs, Umbra, and HawkEye 360; GPS; miniature CubeSats for education and research; and military/defense satellites.

Loading next visibility...
Identifier
47240, 2020-096A
Orbit
GEO
Country
Flag of USUS
Related business
Manufacturer
Maxar Space Sol
Mission
Partially operational Commercial Communications
Bus & Motor
LS-1300, R-4D
Mass
~7,000 kg wet, ~2,884 kg dry
Launch date (UTC)
2020-12-13 (5 years ago)
Launch vehicle
FALCON 9
Launch site
Air Force Eastern Test Range (AFETR)
Object type
Payload
Rocket body
Debris
Shape & HBR
Box + 2 Pan, Unknown HBR
Radar Cross Section
81.349 m², Large (>1 m²)

Expand to show TLE details & history
Last TLE update: 10 hours ago

TLE from 10 hours ago
0 XM-7
1 47240U 20096A   25261.92195267 -.00000225  00000-0  00000-0 0  9991
2 47240   0.0136 135.2665 0004107 354.7036 114.8251  1.00272554  4728
Epoch: 2025-09-18T22:07Z
TLE epoch observation values (Epoch: 2025-09-18T22:07:36.71Z)
Latitude
0.03616°
Longitude
-85.14049°
Altitude
35,793.069 km
Speed
3.074 km/s
True Right ascension
16h 19m 21s
True Declination
0° 02' 10"
Sunlit
Object was in daylight at epoch
Visualization orbit readout
Latitude
Unknown
Longitude
Unknown
Altitude
Unknown
Speed
Unknown
Apparent Right ascension
Unknown
Apparent Declination
Unknown
Sunlit
N/A
Visualization observer readout
Local Sidereal Time
01:13:11
Azimuth
Unknown
Elevation
Unknown
Doppler factor
Unknown
Orbital elements
Apogee altitude
35,804.767 km
Perigee altitude
35,770.132 km
Semi-major axis
42,165.587 km
Eccentricity
0.00041
Inclination
0.0136°
RAAN
135.2665°
Arg. of periapsis
354.7036°
True anomaly
114.8678°
Mean anomaly
114.8251°
Eccentric anomaly
114.84645°
Mean motion
0.25067 °/min
Orbital period
1,436.14 mins
BSTAR
0
Loading maneuver chart data...
Computing Atmospheric mass density...
Loading historical data...
Loading historical data...
Loading historical data...
Loading historical data...
Loading historical data...
Loading historical data...
Loading historical data...
Other satellites on launch #96 in the year 2020 (2020-12-13 UTC)

Documentation

Showing up to 5 results
|